My Profile
  1. Member Settings
  2. My Devices
  3. Sign Out
        More Settings
      Elev 1450 ft, 44.159 °N 75.054 °W

      Star Lake, NY

      Summary

      Temperature (°F)MaxAverageMin
      Max Temperature544125
      Avg Temperature47.2735.1818.21
      Min Temperature4529.7811
      Precipitation (in)MaxAverageMinSum
      Precipitation1.340.1304.1
      Dew Point (°F)MaxAverageMin
      Dew Point45.5929.9210.5
      Wind (mph)MaxAverageMin
      Wind2915.288
      Gust Wind3622.6716
      Sea Level Pressure (in)MaxAverageMin
      Sea Level Pressure29.7629.2828.59

      Daily Observations

      DateTemp High/LowDew Pt High/LowHumidityWindMax WindWind GustPressurePrecip.Condition
      12/1/2023 49 °F / 39 °F 41 °F / 30 °F 77 % 20 mph - 29.2 in 0.31 in
      12/2/2023 41 °F / 34 °F 39 °F / 34 °F 95 % 10 mph - 29.21 in 0.11 in
      12/3/2023 45 °F / 34 °F 41 °F / 32 °F 91 % 20 mph - 28.98 in 0.85 in
      12/4/2023 43 °F / 29 °F 41 °F / 27 °F 90 % 16 mph - 28.97 in 0.08 in
      12/5/2023 32 °F / 28 °F 29 °F / 25 °F 90 % 10 mph - 29.24 in 0 in
      12/6/2023 27 °F / 14 °F 25 °F / 10 °F 87 % 9 mph - 29.29 in 0 in
      12/7/2023 32 °F / 14 °F 30 °F / 10 °F 87 % 10 mph - 29.17 in 0 in
      12/8/2023 42 °F / 26 °F 34 °F / 24 °F 88 % 17 mph - 29.28 in 0.02 in
      12/9/2023 52 °F / 42 °F 38 °F / 33 °F 64 % 17 mph - 29.2 in 0 in
      12/10/2023 54 °F / 37 °F 46 °F / 35 °F 85 % 20 mph - 29.04 in 0.17 in
      12/11/2023 37 °F / 28 °F 35 °F / 18 °F 85 % 14 mph - 29.1 in 0.06 in
      12/12/2023 43 °F / 28 °F 32 °F / 20 °F 66 % 21 mph - 29.38 in 0.04 in
      12/13/2023 34 °F / 23 °F 21 °F / 10 °F 55 % 20 mph - 29.62 in 0 in
      12/14/2023 39 °F / 18 °F 31 °F / 10 °F 65 % 16 mph - 29.68 in 0 in
      12/15/2023 47 °F / 39 °F 37 °F / 32 °F 72 % 22 mph - 29.51 in 0 in
      12/16/2023 46 °F / 33 °F 36 °F / 29 °F 75 % 20 mph - 29.65 in 0 in
      12/17/2023 48 °F / 42 °F 46 °F / 30 °F 78 % 29 mph - 29.2 in 0.12 in
      12/18/2023 49 °F / 37 °F 47 °F / 33 °F 93 % 18 mph - 28.55 in 1.32 in
      12/19/2023 37 °F / 18 °F 34 °F / 15 °F 85 % 12 mph - 29.13 in 0.01 in
      12/20/2023 36 °F / 21 °F 30 °F / 18 °F 83 % 10 mph - 29.6 in 0.02 in
      12/21/2023 30 °F / 13 °F 24 °F / 8 °F 73 % 17 mph - 29.77 in 0 in
      12/22/2023 31 °F / 11 °F 16 °F / 7 °F 69 % 12 mph - 29.64 in 0 in
      12/23/2023 36 °F / 28 °F 32 °F / 14 °F 76 % 17 mph - 29.54 in 0.16 in
      12/24/2023 38 °F / 34 °F 36 °F / 30 °F 90 % 12 mph - 29.56 in 0.02 in
      12/25/2023 48 °F / 37 °F 40 °F / 35 °F 87 % 14 mph - 29.56 in 0 in
      12/26/2023 49 °F / 38 °F 45 °F / 35 °F 88 % 14 mph - 29.37 in 0.03 in
      12/27/2023 50 °F / 45 °F 48 °F / 43 °F 93 % 14 mph - 29.21 in 0.2 in
      12/28/2023 49 °F / 37 °F 46 °F / 36 °F 95 % 10 mph - 29.01 in 0.13 in
      12/29/2023 42 °F / 34 °F 41 °F / 32 °F 96 % 12 mph - 28.88 in 0.44 in
      12/30/2023 34 °F / 26 °F 32 °F / 22 °F 90 % 13 mph - 28.92 in 0.01 in
      12/31/2023 27 °F / 23 °F 23 °F / 17 °F 80 % 10 mph - 29.19 in 0 in
      essentialaccessibility.com
      We recognize our responsibility to use data and technology for good. We may use or share your data with our data vendors. Take control of your data.
      Glossary